GW6161 Weather Reports


time (UTC)temp
C
wind
direction
speed
KPH
gust
KPH
rain 1hr
cm
rain 24hr
cm
rain mn
cm
humidity
%
barometer
mb
20260505054007 16 55 0.0 1.6 0.00 0.00 0.00 63 996.9
20260505053007 16 10 1.6 1.6 0.00 0.00 0.00 63 996.9
20260505052007 16 22 0.0 1.6 0.00 0.00 0.00 63 997.2
20260505051002 17 38 0.0 1.6 0.00 0.00 0.00 62 997.0
20260505040815 17 315 0.0 0.0 0.00 0.00 0.00 59 997.1
20260505035815 17 49 0.0 3.2 0.00 0.00 0.00 58 996.8
20260505034814 17 89 0.0 3.2 0.00 0.00 0.00 58 996.8
20260505033814 18 68 0.0 1.6 0.00 0.00 0.00 57 997.0
20260505032809 18 293 0.0 1.6 0.00 0.00 0.00 58 997.0
20260505031808 18 0 0.0 4.8 0.00 0.00 0.00 57 997.0
20260505030807 18 58 1.6 1.6 0.00 0.00 0.00 56 996.9
20260505025804 18 315 0.0 1.6 0.00 0.00 0.00 56 996.9
20260505024800 18 311 0.0 1.6 0.00 0.00 0.00 53 996.9
20260505023800 18 44 0.0 3.2 0.00 0.00 0.00 53 996.9
20260505022800 18 32 3.2 3.2 0.00 0.00 0.00 54 997.0
20260505021800 19 55 0.0 0.0 0.00 0.00 0.00 54 997.0
20260505020758 19 339 0.0 1.6 0.00 0.00 0.00 53 996.7
20260505015757 19 0 0.0 1.6 0.00 0.00 0.00 54 996.6
20260505014757 19 16 0.0 1.6 0.00 0.00 0.00 52 996.6
20260505013757 19 0 0.0 3.2 0.00 0.00 0.00 52 996.5
20260505012752 20 53 0.0 1.6 0.00 0.00 0.00 52 996.5
20260505011751 20 37 0.0 3.2 0.00 0.00 0.00 52 996.5
20260505010750 20 37 0.0 1.6 0.00 0.00 0.00 51 996.3
20260505005748 20 287 3.2 3.2 0.00 0.00 0.00 50 996.1
20260505004743 21 0 0.0 3.2 0.00 0.00 0.00 51 996.4
20260505003742 21 6 0.0 0.0 0.00 0.00 0.00 50 996.2
20260505002742 21 297 0.0 1.6 0.00 0.00 0.00 48 996.1
20260505001737 22 0 0.0 3.2 0.00 0.00 0.00 48 996.0
20260505000736 22 7 0.0 3.2 0.00 0.00 0.00 47 996.2
20260504235731 23 308 0.0 3.2 0.00 0.00 0.00 44 995.9
20260504234730 23 291 1.6 3.2 0.00 0.00 0.00 43 995.9
20260504233729 24 278 0.0 3.2 0.00 0.00 0.00 41 996.0
20260504232728 24 248 0.0 3.2 0.00 0.00 0.00 41 996.1
20260504231728 25 284 1.6 4.8 0.00 0.00 0.00 40 996.1
20260504230726 25 285 1.6 6.4 0.00 0.00 0.00 42 996.1
20260504225723 25 264 3.2 6.4 0.00 0.00 0.00 41 996.2
20260504224722 25 272 6.4 8.0 0.00 0.00 0.00 40 996.3
20260504223722 25 267 9.7 9.7 0.00 0.00 0.00 39 996.4
20260504222720 25 264 4.8 4.8 0.00 0.00 0.00 40 996.3
20260504221720 25 246 3.2 8.0 0.00 0.00 0.00 39 996.3
20260504220719 26 13 1.6 4.8 0.00 0.00 0.00 37 996.5
20260504215719 26 266 4.8 8.0 0.00 0.00 0.00 37 996.6
20260504214718 26 273 3.2 8.0 0.00 0.00 0.00 36 996.6
20260504213717 27 264 3.2 6.4 0.00 0.00 0.00 36 996.7
20260504212717 27 257 1.6 9.7 0.00 0.00 0.00 36 996.9
20260504211716 27 253 6.4 14.5 0.00 0.00 0.00 34 996.7
20260504210716 27 258 8.0 8.0 0.00 0.00 0.00 34 996.7
20260504205716 27 265 9.7 9.7 0.00 0.00 0.00 30 996.9
20260504204712 26 258 8.0 14.5 0.00 0.00 0.00 36 997.0
20260504203708 27 195 0.0 9.7 0.00 0.00 0.00 35 997.1
20260504202705 27 266 8.0 8.0 0.00 0.00 0.00 36 997.0
20260504201700 27 337 4.8 14.5 0.00 0.00 0.00 33 997.1
20260504200655 27 256 3.2 9.7 0.00 0.00 0.00 36 997.3
20260504195653 27 297 3.2 4.8 0.00 0.00 0.00 39 997.4
20260504194652 26 305 3.2 14.5 0.00 0.00 0.00 40 997.4
20260504193650 26 263 9.7 12.9 0.00 0.00 0.00 38 997.8
20260504192646 26 350 3.2 8.0 0.00 0.00 0.00 40 997.6
20260504191642 26 266 3.2 4.8 0.00 0.00 0.00 43 997.7
20260504190640 26 265 3.2 6.4 0.00 0.00 0.00 41 998.0
20260504185639 26 271 3.2 6.4 0.00 0.00 0.00 44 998.1
20260504184638 26 269 3.2 17.7 0.00 0.00 0.00 45 998.3
20260504183636 26 263 6.4 12.9 0.00 0.00 0.00 42 998.5
20260504182631 25 262 6.4 9.7 0.00 0.00 0.00 45 998.7
20260504181631 25 264 4.8 4.8 0.00 0.00 0.00 44 999.0
20260504180628 25 265 9.7 12.9 0.00 0.00 0.00 42 998.8
20260504175623 26 237 0.0 8.0 0.00 0.00 0.00 46 999.0
20260504174618 25 284 4.8 4.8 0.00 0.00 0.00 45 999.0
20260504173617 25 274 1.6 3.2 0.00 0.00 0.00 45 999.2
20260504172616 25 252 4.8 9.7 0.00 0.00 0.00 45 999.3
20260504171615 23 263 3.2 12.9 0.00 0.00 0.00 45 999.5
20260504170614 23 266 6.4 6.4 0.00 0.00 0.00 47 999.6
20260504150548 20 246 3.2 9.7 0.00 0.00 0.00 53 1000.7
20260504140534 18 230 0.0 3.2 0.00 0.00 0.00 57 1001.0
20260504130527 14 253 3.2 4.8 0.00 0.00 0.00 69 1001.1
20260504110508 11 73 0.0 3.2 0.00 0.00 0.00 75 1000.2
20260504100453 11 113 0.0 1.6 0.00 0.00 0.00 72 1000.2
20260504081429 11 119 0.0 1.6 0.00 0.00 0.00 74 999.9
20260504080428 11 48 0.0 1.6 0.00 0.00 0.00 75 1000.1